User: anonymous   Login
Location: Tyler Bend Campground
(35.9875°N, 92.7606°W)
Time: 23:50:34
(UTC-05:00)
Language:

CZ-2C R/B - Orbit

View from above orbital plane
View from above orbital plane
View from above satellite
View from above satellite

Ground track
Ground track

The orbit data is extracted from the following two-line orbital elements,

1 36089U 09061B   17204.55711987 +.00000065 +00000-0 +27677-4 0  9993
2 36089 098.0527 204.7432 0080776 294.1294 218.7004 14.49670247406882
Epoch (UTC): 23 July 2017 13:22:15
Eccentricity: 0.0080776
inclination: 98.0527°
perigee height: 669 km
apogee height: 784 km
right ascension of ascending node: 204.7432°
argument of perigee: 294.1294°
revolutions per day: 14.49670247
mean anomaly at epoch: 218.7004°
orbit number at epoch: 40688

The dashed part of the orbit path shows where the satellite is in the earth's shadow,  

DLR